Quincy, IL

12:58 AM CST on January 21, 2018 (GMT -0600)
Quincy Regional-Baldwin

Weather History for KUIN - February, 2011

Change the Weather History Date:

Friday, February 11, 2011

  Actual Average Record
Temperature  
Mean Temperature 23 °F 30 °F  
Max Temperature 32 °F 38 °F 70 °F (1999)
Min Temperature 14 °F 21 °F -12 °F (1981)
Degree Days  
Heating Degree Days 42 35  
Month to date heating degree days 402  
Since 1 July heating degree days 3788  
Cooling Degree Days 0 0  
Month to date cooling degree days 0  
Year to date cooling degree days 0  
Moisture  
Dew Point 13 °F    
Average Humidity 61    
Maximum Humidity 72    
Minimum Humidity 54    
Precipitation  
Precipitation 0.00 in 0.07 in 1.38 in (1998)
Month to date precipitation 0.64  
Year to date precipitation 2.16  
Sea Level Pressure  
Sea Level Pressure 30.06 in    
Wind  
Wind Speed 11 mph (SW)    
Max Wind Speed 16 mph    
Max Gust Speed 24 mph    
Visibility 10 miles    
Events      
T = Trace of Precipitation, MM = Missing Value Source: NWS Daily Summary

Daily Weather History Graph

Daily Weather History Graph

Search for Another Location

Airport or City:

Trip Planner

Search our weather history database for the weather conditions in past years. The results will help you decide how hot, cold, wet, or windy it might be!

Date:

Astronomy

Feb. 11, 2011 Rise Set
Actual Time 7:02 AM CST 5:35 PM CST
Civil Twilight 6:34 AM CST 6:03 PM CST
Nautical Twilight 6:02 AM CST 6:35 PM CST
Astronomical Twilight 5:31 AM CST 7:07 PM CST
Moon 10:56 AM CST (2/11) 1:12 AM CST (2/11)
Length of Visible Light 11h 28m
Length of Day
10h 33m
First Quarter, 54% of the Moon is Illuminated
Feb 11
First Quarter
Feb 18
Full
Feb 24
Last Quarter
Mar 4
New
Mar 12
First Quarter

Hourly Weather History & Observations

Time (CST) Temp. Windchill Dew Point Humidity Pressure Visibility Wind Dir Wind Speed Gust Speed Precip Events Conditions
12:54 AM 18.0 °F 6.1 °F 3.9 °F 54% 30.08 in 10.0 mi SW 10.4 mph - N/A   Partly Cloudy
1:54 AM 17.1 °F 5.8 °F 3.0 °F 54% 30.08 in 10.0 mi SW 9.2 mph - N/A   Mostly Cloudy
2:54 AM 17.1 °F 5.8 °F 3.0 °F 54% 30.07 in 10.0 mi SW 9.2 mph - N/A   Mostly Cloudy
3:54 AM 15.1 °F 2.5 °F 3.0 °F 59% 30.07 in 10.0 mi SSW 10.4 mph - N/A   Clear
4:54 AM 14.0 °F 1.2 °F 3.0 °F 62% 30.07 in 10.0 mi SW 10.4 mph - N/A   Clear
5:54 AM 14.0 °F 0.5 °F 3.0 °F 62% 30.06 in 10.0 mi SSW 11.5 mph - N/A   Clear
6:54 AM 14.0 °F 0.5 °F 3.9 °F 64% 30.06 in 10.0 mi SW 11.5 mph - N/A   Mostly Cloudy
7:54 AM 16.0 °F 4.4 °F 6.1 °F 65% 30.06 in 10.0 mi SW 9.2 mph - N/A   Overcast
8:54 AM 18.0 °F 4.2 °F 7.0 °F 62% 30.07 in 10.0 mi SW 13.8 mph - N/A   Clear
9:54 AM 19.4 °F 7.2 °F 8.6 °F 63% 30.04 in 10.0 mi SW 11.5 mph - N/A   Clear
10:54 AM 23.0 °F 11.7 °F 10.0 °F 58% 30.06 in 10.0 mi SW 11.5 mph - N/A   Clear
11:54 AM 26.1 °F 14.5 °F 12.9 °F 58% 30.05 in 10.0 mi SW 13.8 mph - N/A   Clear
12:54 PM 28.9 °F 18.6 °F 16.0 °F 58% 30.02 in 10.0 mi SW 12.7 mph - N/A   Partly Cloudy
1:54 PM 30.0 °F 20.0 °F 17.1 °F 59% 30.02 in 10.0 mi SW 12.7 mph - N/A   Clear
2:54 PM 30.9 °F 21.2 °F 18.0 °F 59% 30.02 in 10.0 mi SW 12.7 mph - N/A   Mostly Cloudy
3:54 PM 32.0 °F 23.6 °F 19.9 °F 61% 30.02 in 10.0 mi SW 10.4 mph - N/A   Overcast
4:54 PM 32.0 °F 23.6 °F 19.9 °F 61% 30.03 in 10.0 mi SW 10.4 mph - N/A   Clear
5:54 PM 32.0 °F 22.1 °F 19.9 °F 61% 30.04 in 10.0 mi WSW 13.8 mph - N/A   Overcast
6:54 PM 32.0 °F 21.2 °F 19.9 °F 61% 30.06 in 10.0 mi West 16.1 mph 24.2 mph N/A   Overcast
7:54 PM 30.9 °F 20.7 °F 19.9 °F 64% 30.06 in 10.0 mi WSW 13.8 mph - N/A   Mostly Cloudy
8:54 PM 30.0 °F 20.0 °F 19.0 °F 64% 30.07 in 10.0 mi WSW 12.7 mph - N/A   Clear
9:54 PM 30.0 °F 20.0 °F 19.9 °F 66% 30.10 in 10.0 mi West 12.7 mph - N/A   Clear
10:54 PM 32.0 °F 23.6 °F 21.9 °F 66% 30.12 in 10.0 mi West 10.4 mph - N/A   Clear
11:54 PM 30.9 °F 22.8 °F 23.0 °F 72% 30.13 in 10.0 mi WSW 9.2 mph - N/A   Clear